Fairfield, IL

8:49 PM CST on December 09, 2019 (GMT -0600)
Fairfield Municipal

Weather History for KFWC - October, 2019

Change the Weather History Date:

Sunday, October 6, 2019

  Actual Average (WUND) Record (WUND)
Temperature  
Mean Temperature 61 °F -  
Max Temperature 65 °F - - (-1)
Min Temperature 57 °F - - (-1)
Degree Days  
Heating Degree Days 4    
Growing Degree Days 11 (Base 50)    
Moisture  
Dew Point 58 °F    
Average Humidity 92    
Maximum Humidity 100    
Minimum Humidity 72    
Precipitation  
Precipitation 0.15 in - - ()
Sea Level Pressure  
Sea Level Pressure 30.10 in    
Wind  
Wind Speed 1 mph ()    
Max Wind Speed 6 mph    
Max Gust Speed -    
Visibility 9.8 miles    
Events Rain , Thunderstorm    
Averages and records for this station are not official NWS values.
T = Trace of Precipitation, MM = Missing Value Source: Averaged Metar Reports

Daily Weather History Graph

Daily Weather History Graph

Search for Another Location

Airport or City:

Astronomy

Oct. 06, 2019 Rise Set
Actual Time 6:53 AM CDT 6:29 PM CDT
Civil Twilight 6:27 AM CDT 6:55 PM CDT
Nautical Twilight 5:56 AM CDT 7:26 PM CDT
Astronomical Twilight 5:25 AM CDT 7:56 PM CDT
Moon 3:02 PM CDT (10/6) No Moon Set
Length of Visible Light 12h 28m
Length of Day
11h 35m
First Quarter, 60% of the Moon is Illuminated
Oct 6
First Quarter
Oct 13
Full
Oct 21
Last Quarter
Oct 27
New
Nov 4
First Quarter

Hourly Weather History & Observations

Time (CDT) Temp. Dew Point Humidity Pressure Visibility Wind Dir Wind Speed Gust Speed Precip Events Conditions
12:15 AM 64.8 °F 55.6 °F 72% 29.96 in 10.0 mi Calm Calm - N/A   Overcast
12:35 AM 64.4 °F 55.9 °F 74% 29.95 in 10.0 mi Calm Calm - N/A   Overcast
12:55 AM 62.6 °F 56.3 °F 80% 29.96 in 10.0 mi Calm Calm - N/A   Mostly Cloudy
1:15 AM 62.2 °F 55.8 °F 79% 29.96 in 10.0 mi Calm Calm - N/A   Scattered Clouds
1:35 AM 60.1 °F 56.1 °F 87% 29.97 in 10.0 mi Calm Calm - N/A   Clear
1:55 AM 60.1 °F 55.4 °F 85% 29.97 in 10.0 mi Calm Calm - N/A   Clear
2:15 AM 60.1 °F 55.6 °F 85% 29.97 in 10.0 mi Calm Calm - N/A   Clear
2:35 AM 59.7 °F 55.9 °F 87% 29.97 in 10.0 mi Calm Calm - N/A   Clear
2:55 AM 60.3 °F 55.2 °F 83% 29.97 in 10.0 mi Calm Calm - N/A   Clear
3:15 AM 60.3 °F 55.4 °F 84% 29.98 in 10.0 mi Calm Calm - N/A   Clear
3:35 AM 61.0 °F 54.7 °F 80% 29.99 in 10.0 mi Calm Calm - N/A   Mostly Cloudy
3:55 AM 62.6 °F 53.6 °F 72% 30.00 in 10.0 mi Calm Calm - N/A   Mostly Cloudy
4:15 AM 62.1 °F 54.5 °F 76% 30.00 in 10.0 mi Calm Calm - N/A   Scattered Clouds
4:35 AM 61.0 °F 55.0 °F 81% 30.01 in 10.0 mi Calm Calm - N/A   Mostly Cloudy
4:55 AM 60.3 °F 55.8 °F 85% 30.01 in 10.0 mi Calm Calm - N/A   Overcast
5:15 AM 60.8 °F 55.8 °F 83% 30.02 in 10.0 mi Calm Calm - N/A   Overcast
5:35 AM 63.7 °F 56.1 °F 76% 30.02 in 10.0 mi Calm Calm - N/A   Overcast
5:55 AM 64.4 °F 57.2 °F 77% 30.04 in 10.0 mi Calm Calm - N/A   Overcast
6:15 AM 62.8 °F 59.2 °F 88% 30.05 in 10.0 mi Calm Calm - N/A   Overcast
6:35 AM 62.1 °F 60.1 °F 93% 30.06 in 10.0 mi Calm Calm - N/A   Scattered Clouds
6:55 AM 61.7 °F 60.8 °F 97% 30.07 in 10.0 mi Calm Calm - N/A Thunderstorm Scattered Clouds
7:15 AM 61.7 °F 61.2 °F 98% 30.08 in 10.0 mi Calm Calm - N/A   Mostly Cloudy
7:35 AM 62.2 °F 61.9 °F 99% 30.10 in 10.0 mi Calm Calm - N/A   Overcast
7:55 AM 63.5 °F 61.7 °F 94% 30.10 in 10.0 mi Calm Calm - N/A   Overcast
8:15 AM 64.4 °F 61.9 °F 92% 30.10 in 10.0 mi Calm Calm - N/A   Overcast
8:35 AM 63.7 °F 62.6 °F 96% 30.10 in 10.0 mi Calm Calm - N/A Rain Light Rain
8:55 AM 64.6 °F 63.0 °F 94% 30.11 in 10.0 mi North 5.8 mph - N/A   Mostly Cloudy
9:15 AM 64.4 °F 62.6 °F 94% 30.11 in 10.0 mi North 3.5 mph - N/A   Overcast
9:35 AM 64.0 °F 62.2 °F 94% 30.12 in 10.0 mi North 3.5 mph - N/A   Overcast
9:55 AM 64.0 °F 61.3 °F 91% 30.13 in 10.0 mi North 3.5 mph - N/A   Overcast
10:15 AM 64.6 °F 61.7 °F 90% 30.13 in 10.0 mi NNE 3.5 mph - N/A   Overcast
10:35 AM 64.9 °F 61.3 °F 88% 30.12 in 10.0 mi North 3.5 mph - N/A   Overcast
10:55 AM 64.0 °F 60.1 °F 87% 30.13 in 10.0 mi NNE 3.5 mph - N/A   Overcast
11:15 AM 64.9 °F 59.7 °F 83% 30.14 in 10.0 mi NE 3.5 mph - N/A   Overcast
11:35 AM 65.1 °F 57.6 °F 76% 30.14 in 10.0 mi North 3.5 mph - N/A   Overcast
11:55 AM 64.8 °F 57.4 °F 77% 30.14 in 10.0 mi North 3.5 mph - N/A   Overcast
12:15 PM 62.8 °F 59.0 °F 87% 30.14 in 5.0 mi Calm Calm - 0.01 in Rain Heavy Rain
12:35 PM 61.9 °F 61.2 °F 97% 30.14 in 4.0 mi Calm Calm - 0.08 in Rain Rain
12:55 PM 61.9 °F 61.7 °F 99% 30.14 in 10.0 mi Calm Calm - 0.08 in   Overcast
1:15 PM 61.5 °F 61.3 °F 99% 30.14 in 10.0 mi North 5.8 mph - 0.01 in Rain Rain
1:35 PM 59.7 °F 58.6 °F 96% 30.15 in 10.0 mi NNW 4.6 mph - 0.01 in Rain Rain
1:55 PM 58.8 °F 58.8 °F 100% 30.15 in 10.0 mi North 4.6 mph - 0.02 in Rain Light Rain
2:15 PM 58.3 °F 58.3 °F 100% 30.13 in 7.0 mi North 4.6 mph - 0.01 in Rain Rain
2:35 PM 57.6 °F 57.6 °F 100% 30.14 in 10.0 mi North 4.6 mph - 0.02 in Rain Rain
2:55 PM 57.4 °F 57.4 °F 100% 30.14 in 10.0 mi North 3.5 mph - 0.02 in Rain Light Rain
3:15 PM 58.1 °F 58.1 °F 100% 30.14 in 10.0 mi Calm Calm - 0.01 in   Light Drizzle
3:35 PM 58.1 °F 58.1 °F 100% 30.15 in 10.0 mi Calm Calm - 0.01 in Rain Rain
3:55 PM 58.3 °F 58.3 °F 100% 30.13 in 10.0 mi Calm Calm - 0.02 in Rain Light Rain
4:15 PM 58.1 °F 58.1 °F 100% 30.12 in 10.0 mi Calm Calm - 0.01 in Rain Light Rain
4:35 PM 58.1 °F 56.7 °F 95% 30.11 in 10.0 mi NNE 3.5 mph - 0.01 in   Mostly Cloudy
4:55 PM 58.1 °F 57.6 °F 98% 30.12 in 10.0 mi Calm Calm - 0.01 in   Mostly Cloudy
5:15 PM 58.1 °F 58.1 °F 100% 30.12 in 10.0 mi Calm Calm - N/A   Overcast
5:35 PM 58.1 °F 57.6 °F 98% 30.14 in 10.0 mi Calm Calm - N/A   Overcast
5:55 PM 57.9 °F 57.2 °F 97% 30.13 in 10.0 mi Calm Calm - N/A   Overcast
6:15 PM 57.6 °F 57.2 °F 99% 30.12 in 10.0 mi Calm Calm - N/A Rain Rain
6:35 PM 57.7 °F 57.7 °F 100% 30.14 in 10.0 mi Calm Calm - N/A   Overcast
6:55 PM 57.7 °F 57.7 °F 100% 30.13 in 10.0 mi Calm Calm - N/A   Overcast
7:15 PM 57.7 °F 57.7 °F 100% 30.15 in 10.0 mi Calm Calm - N/A   Overcast
7:35 PM 57.9 °F 57.9 °F 100% 30.15 in 10.0 mi Calm Calm - N/A   Overcast
7:55 PM 58.1 °F 58.1 °F 100% 30.17 in 10.0 mi Calm Calm - N/A   Overcast
8:15 PM 57.7 °F 57.7 °F 100% 30.16 in 10.0 mi Calm Calm - N/A   Overcast
8:35 PM 57.7 °F 57.7 °F 100% 30.15 in 10.0 mi Calm Calm - N/A   Overcast
8:55 PM 58.1 °F 58.1 °F 100% 30.15 in 10.0 mi Calm Calm - N/A   Overcast
9:15 PM 58.1 °F 58.1 °F 100% 30.16 in 10.0 mi Calm Calm - N/A   Overcast
9:35 PM 58.3 °F 58.3 °F 100% 30.17 in 10.0 mi Calm Calm - N/A   Overcast
9:55 PM 58.3 °F 58.3 °F 100% 30.17 in 10.0 mi Calm Calm - N/A   Overcast
10:15 PM 58.1 °F 58.1 °F 100% 30.17 in 10.0 mi Calm Calm - N/A   Overcast
10:35 PM 58.1 °F 58.1 °F 100% 30.17 in 10.0 mi Calm Calm - N/A   Overcast
10:55 PM 58.1 °F 58.1 °F 100% 30.17 in 10.0 mi Calm Calm - N/A   Overcast
11:15 PM 58.3 °F 58.3 °F 100% 30.17 in 10.0 mi Calm Calm - N/A   Overcast
11:35 PM 58.1 °F 58.1 °F 100% 30.16 in 10.0 mi Calm Calm - N/A   Mostly Cloudy
11:55 PM 58.1 °F 58.1 °F 100% 30.15 in 10.0 mi Calm Calm - N/A   Scattered Clouds